[[[{"header":{"parameterUnit":"kt","parameterCategory":2,"dx":1,"dy":1,"la1":30.253999710083008,"la2":30.299108505249023,"lo1":-89.0895004272461,"lo2":-89.04439544677734,"nx":28,"ny":28,"refTime":"2022-10-06T21:00:00:Z","depth":0,"parameterNumber":1,"parameterNumberName":"U-component_of_WINDS"},"data":[-1.0202,-1.0166,-1.0155,-1.0109,-1.0091,-1.0057,-1.0042,-1.002,-0.9999,-0.9957,-0.993,-0.9914,-0.9888,-0.9852,-0.9821,-0.9815,-0.9802,-0.9799,-0.9791,-0.9819,-0.9822,-0.9825,-0.9833,-0.9797,-0.9796,-0.9764,-0.9764,-0.9764,-1.0227,-1.0209,-1.0181,-1.0146,-1.0122,-1.012,-1.0091,-1.0071,-1.004,-1.0014,-0.9987,-0.9947,-0.9914,-0.9888,-0.9854,-0.9836,-0.9832,-0.9828,-0.9828,-0.9824,-0.9854,-0.9863,-0.9832,-0.9832,-0.9832,-0.9832,-0.9832,-0.9832,-1.0268,-1.0247,-1.0219,-1.0189,-1.0168,-1.0144,-1.0121,-1.0102,-1.0074,-1.0037,-1.0028,-0.9992,-0.9962,-0.9914,-0.9894,-0.9865,-0.9867,-0.9858,-0.9856,-0.9854,-0.9854,-0.9904,-0.9858,-0.9858,-0.9858,-0.9858,-0.9858,0,-1.0295,-1.0287,-1.0259,-1.0228,-1.0205,-1.0178,-1.0152,-1.0138,-1.0115,-1.0092,-1.0057,-1.0035,-0.9991,-0.9956,-0.992,-0.99,-0.9893,-0.989,-0.9884,-0.9889,-0.9898,-0.9893,-0.9942,-0.9891,-0.9892,-0.9892,-0.9892,-0.9892,-1.0336,-1.0312,-1.0277,-1.0259,-1.0242,-1.0212,-1.0191,-1.0173,-1.0152,-1.0116,-1.0097,-1.0062,-1.0033,-0.9978,-0.9953,-0.9919,-0.9914,-0.9897,-0.9909,-0.9915,-0.9914,-0.9916,-0.9914,-0.9894,-0.9894,-0.9894,-0.9894,0,-1.0361,-1.0342,-1.03,-1.0267,-1.0257,-1.0233,-1.0203,-1.018,-1.0163,-1.0128,-1.0119,-1.0092,-1.0057,-1.0035,-0.9989,-0.9979,-0.9937,-0.9933,-0.9948,-0.9946,-0.9928,-0.993,-0.9873,-0.9864,-0.9902,-0.9902,-0.9901,0,-1.0388,-1.0357,-1.033,-1.0306,-1.0271,-1.0253,-1.0217,-1.0199,-1.0173,-1.0145,-1.0134,-1.0108,-1.0083,-1.0054,-1.0038,-1.0,-0.9991,-0.998,-0.9976,-0.9981,-0.9982,-0.9968,-0.997,-0.9967,-0.9968,-0.9968,-0.9968,0,-1.0429,-1.0376,-1.0338,-1.0323,-1.0283,-1.0265,-1.0247,-1.0218,-1.0197,-1.0166,-1.0153,-1.0118,-1.0098,-1.0071,-1.0051,-1.0061,-1.0003,-1.0012,-0.9992,-0.9993,-0.998,-0.9981,-0.9937,-0.9969,-0.9969,-0.9969,-0.9969,0,-1.0447,-1.0418,-1.0366,-1.0333,-1.0319,-1.0293,-1.0259,-1.0232,-1.02,-1.0189,-1.0164,-1.0153,-1.0117,-1.0128,-1.0078,-1.0096,-1.0078,-1.0064,-1.0062,-1.0057,-1.0069,-1.0047,-1.0007,-1.0002,-1.0053,-1.0054,-1.0055,0,-1.0499,-1.0441,-1.0425,-1.0374,-1.0344,-1.0334,-1.0305,-1.0278,-1.026,-1.0231,-1.0211,-1.0177,-1.018,-1.0166,-1.0144,-1.0121,-1.0098,-1.0124,-1.008,-1.0079,-1.009,-1.0053,-1.0053,-1.0019,-1.0063,-1.0063,-1.0062,0,-1.0536,-1.0488,-1.048,-1.0462,-1.0423,-1.0397,-1.0363,-1.0326,-1.0308,-1.0278,-1.0249,-1.02,-1.02,-1.0177,-1.0163,-1.0142,-1.0113,-1.0144,-1.0143,-1.014,-1.0065,-1.0066,-1.006,-1.0109,-1.0107,-1.0107,-1.0069,0,-1.057,-1.0538,-1.0515,-1.0474,-1.0451,-1.0417,-1.0394,-1.0372,-1.0363,-1.0344,-1.03,-1.0269,-1.023,-1.0216,-1.0206,-1.0164,-1.0167,-1.0167,-1.0174,-1.015,-1.0137,-1.0132,-1.0196,-1.0196,-1.0196,-1.0196,0,0,-1.0624,-1.0577,-1.056,-1.0526,-1.0505,-1.0494,-1.0461,-1.0438,-1.0393,-1.0378,-1.0383,-1.0309,-1.0283,-1.0232,-1.0223,-1.0206,-1.0196,-1.0204,-1.0162,-1.0158,-1.0154,-1.0141,-1.0136,-1.0196,-1.0196,-1.0196,-1.0196,0,-1.0632,-1.0609,-1.0576,-1.0553,-1.0517,-1.0499,-1.0492,-1.0454,-1.044,-1.0397,-1.0386,-1.0357,-1.0297,-1.0272,-1.0251,-1.0211,-1.0204,-1.02,-1.0188,-1.0163,-1.0159,-1.0156,-1.0142,-1.0137,-1.0196,-1.0196,-1.0196,0,-1.0665,-1.0638,-1.0619,-1.0571,-1.0547,-1.0515,-1.0518,-1.0484,-1.046,-1.0446,-1.0403,-1.0382,-1.0345,-1.0299,-1.0277,-1.028,-1.0212,-1.0228,-1.0227,-1.0224,-1.0199,-1.0194,-1.019,-1.0243,-1.0244,-1.0244,0,0,-1.0674,-1.0643,-1.0607,-1.0571,-1.0556,-1.0529,-1.0509,-1.0497,-1.0465,-1.0452,-1.0425,-1.0393,-1.0358,-1.0336,-1.0301,-1.0254,-1.0245,-1.0235,-1.0233,-1.0231,-1.0227,-1.0202,-1.0197,-1.0245,-1.0245,-1.0245,0,0,-1.0678,-1.0635,-1.0631,-1.0586,-1.0557,-1.0518,-1.0496,-1.0489,-1.0456,-1.0457,-1.0433,-1.0423,-1.038,-1.0359,-1.0376,-1.0303,-1.0311,-1.0306,-1.0319,-1.0315,-1.0313,-1.0319,-1.0373,0,0,0,0,0,-1.0673,-1.0641,-1.0638,-1.0627,-1.0564,-1.052,-1.0511,-1.0492,-1.0499,-1.0482,-1.0458,-1.0452,-1.0364,-1.0378,-1.0367,-1.0347,-1.0259,-1.0256,-1.0254,-1.0258,-1.0255,-1.0253,0,0,0,0,0,0,-1.0668,-1.0655,-1.0639,-1.0599,-1.0584,-1.0521,-1.0528,-1.0522,-1.05,-1.05,-1.0457,-1.045,-1.0432,-1.0383,-1.0373,-1.0354,-1.0376,-1.0258,-1.0256,-1.0254,-1.0257,-1.0255,-1.0253,0,0,0,0,0,-1.0665,-1.0654,-1.0558,-1.0599,-1.0586,-1.0553,-1.0529,-1.0524,-1.0507,-1.0469,-1.0463,-1.0494,-1.0432,-1.0422,-1.0377,-1.036,-1.0383,-1.0379,-1.0256,-1.0255,-1.0253,-1.0256,0,0,0,0,0,0,-1.0662,-1.0648,-1.0555,-1.055,-1.0609,-1.0556,-1.0547,-1.0526,-1.0477,-1.047,-1.0505,-1.0506,-1.0431,-1.0424,-1.0416,-1.0363,-1.0389,-1.0385,-1.0383,-1.0255,-1.0254,-1.0253,0,0,0,0,0,0,-1.0654,-1.0644,-1.0553,-1.0567,-1.0564,-1.0559,-1.0551,-1.0509,-1.0476,-1.0516,-1.0514,-1.0506,-1.0442,-1.0425,-1.0419,-1.0354,-1.0393,-1.0389,-1.0387,-1.0385,-1.0254,-1.0253,0,0,0,0,0,0,-1.0649,-1.0641,-1.0568,-1.0566,-1.0563,-1.051,-1.0521,-1.0457,-1.0491,-1.0518,-1.0493,-1.0494,-1.0443,-1.0437,-1.0421,-1.0359,-1.0355,-1.0393,-1.039,-1.0389,-1.0388,0,0,0,0,0,0,0,-1.0646,-1.0706,-1.0582,-1.0565,-1.0562,-1.0508,-1.0507,-1.0505,-1.0491,-1.0492,-1.0493,-1.0494,-1.0414,-1.041,-1.0406,-1.0363,0,0,-1.0393,-1.0391,0,0,0,0,0,0,0,0,-1.0709,-1.0706,-1.0582,-1.0581,-1.058,-1.0508,-1.0507,-1.0506,-1.0491,-1.0492,-1.0493,-1.0493,-1.0413,-1.0409,-1.0406,0,0,0,0,0,0,0,0,0,0,0,0,0,0,0,-1.0582,-1.0581,0,-1.0508,-1.0507,-1.0506,-1.0491,-1.0492,-1.0493,-1.0493,-1.0412,-1.0409,-1.0406,0,0,0,0,0,0,0,0,0,0,0,0,0,0,0,0,0,0,0,0,0,0,0,0,0,0,0,0,0,0,0,0,0,0,0,0,0,0,0,0,0,0,0,0,0,0,0,0,0,0,0,0,0,0,0,0,0,0,0,0,0,0,0,0,0,0,0,0,0]}],[{"header":{"parameterUnit":"kt","parameterCategory":2,"dx":1,"dy":1,"la1":30.253999710083008,"la2":30.299108505249023,"lo1":-89.0895004272461,"lo2":-89.04439544677734,"nx":28,"ny":28,"refTime":"2022-10-06T21:00:00:Z","depth":0,"parameterNumber":2,"parameterNumberName":"V-component_of_WINDS"},"data":[1.4633,1.4626,1.4609,1.4591,1.4572,1.4556,1.4544,1.4526,1.4508,1.4483,1.4465,1.4446,1.4418,1.439,1.4367,1.4358,1.4349,1.4357,1.4345,1.4327,1.4323,1.4319,1.4321,1.4356,1.4356,1.4365,1.4365,1.4365,1.4615,1.4598,1.4585,1.4561,1.4548,1.4529,1.4507,1.4497,1.4482,1.4459,1.4442,1.4418,1.4397,1.4366,1.434,1.4332,1.4321,1.4326,1.4326,1.4321,1.4301,1.4303,1.4336,1.4336,1.4336,1.4336,1.4336,1.4336,1.4578,1.4574,1.4551,1.4536,1.452,1.4503,1.4496,1.4473,1.4459,1.4434,1.4417,1.4399,1.4371,1.4333,1.4316,1.4298,1.4289,1.4289,1.4288,1.4288,1.429,1.4273,1.4294,1.4294,1.4293,1.4293,1.4293,0,1.4544,1.4531,1.4519,1.4501,1.4489,1.4473,1.4456,1.4451,1.4416,1.4405,1.4387,1.4374,1.4345,1.4324,1.4298,1.428,1.4257,1.4254,1.4253,1.4261,1.4269,1.4261,1.4227,1.4254,1.4253,1.4253,1.4253,1.4253,1.4501,1.4502,1.4471,1.4464,1.4451,1.4441,1.443,1.4401,1.4391,1.4363,1.436,1.434,1.4323,1.4295,1.4267,1.4245,1.4234,1.4245,1.423,1.4236,1.423,1.4229,1.4227,1.4248,1.4249,1.4249,1.425,0,1.4478,1.4454,1.4449,1.4419,1.4411,1.4411,1.4383,1.4378,1.4358,1.4347,1.4343,1.431,1.4292,1.4263,1.4237,1.4221,1.4213,1.4204,1.4221,1.4217,1.4221,1.422,1.4249,1.4249,1.4215,1.4215,1.4216,0,1.443,1.4432,1.4395,1.4394,1.4393,1.4365,1.4363,1.4346,1.4326,1.4317,1.429,1.4282,1.4247,1.4233,1.4211,1.4199,1.4196,1.4182,1.4175,1.4183,1.4185,1.4176,1.4173,1.4166,1.4166,1.4166,1.4166,0,1.4394,1.4379,1.4377,1.4369,1.4338,1.4337,1.4323,1.4301,1.4292,1.4275,1.4268,1.425,1.4239,1.4224,1.4196,1.4186,1.4182,1.4164,1.4168,1.4168,1.4168,1.4168,1.4202,1.4165,1.4165,1.4165,1.4165,0,1.4352,1.434,1.4343,1.4315,1.4312,1.4311,1.4293,1.4286,1.4264,1.4251,1.4238,1.4216,1.4208,1.419,1.4176,1.4171,1.4161,1.4148,1.4148,1.4144,1.4126,1.4145,1.4182,1.4184,1.414,1.414,1.414,0,1.4314,1.4313,1.429,1.4293,1.4288,1.4258,1.4256,1.424,1.4222,1.4213,1.4193,1.4183,1.4165,1.4158,1.4155,1.4133,1.4139,1.4132,1.4112,1.4112,1.4116,1.4151,1.4163,1.4178,1.4137,1.4137,1.4138,0,1.4282,1.4249,1.4252,1.4241,1.4219,1.4216,1.4214,1.42,1.4195,1.4182,1.4177,1.4165,1.4149,1.4139,1.412,1.4119,1.4134,1.4102,1.4101,1.4106,1.4135,1.4146,1.4148,1.4121,1.4121,1.4121,1.4135,0,1.4215,1.4214,1.4222,1.4205,1.4199,1.4203,1.4177,1.4173,1.4156,1.4139,1.4134,1.4116,1.41,1.4098,1.4083,1.409,1.4084,1.4069,1.4049,1.4074,1.4077,1.4079,1.4046,1.4045,1.4044,1.4044,0,0,1.4183,1.4182,1.416,1.4161,1.4154,1.4125,1.413,1.412,1.4102,1.4096,1.4086,1.4066,1.4053,1.4049,1.4054,1.405,1.4047,1.4042,1.4063,1.4065,1.4067,1.4072,1.4074,1.4043,1.4042,1.4042,1.4042,0,1.4153,1.4146,1.4154,1.4143,1.4127,1.4111,1.4113,1.4092,1.4081,1.408,1.4054,1.4049,1.4038,1.4024,1.4015,1.4041,1.4022,1.4039,1.4061,1.4058,1.4061,1.4064,1.4069,1.4072,1.4041,1.4041,1.4041,0,1.4114,1.4101,1.4104,1.4093,1.4083,1.4081,1.4054,1.4055,1.4052,1.402,1.4019,1.4006,1.3987,1.399,1.3991,1.3981,1.3999,1.3991,1.3994,1.3993,1.3989,1.3993,1.3997,1.3952,1.3952,1.3951,0,0,1.4092,1.4094,1.4071,1.4085,1.408,1.4057,1.4055,1.4039,1.4026,1.4021,1.4004,1.399,1.3981,1.3977,1.3969,1.3977,1.3969,1.3982,1.3986,1.3989,1.399,1.3987,1.3991,1.3951,1.3951,1.3951,0,0,1.4081,1.4057,1.4044,1.4058,1.4047,1.4025,1.4033,1.4016,1.4007,1.4004,1.3976,1.3972,1.3974,1.3963,1.3955,1.3961,1.3943,1.3944,1.3969,1.3974,1.3978,1.398,1.3925,0,0,0,0,0,1.404,1.406,1.4048,1.4047,1.4035,1.4031,1.4029,1.4008,1.3994,1.4,1.3983,1.3964,1.3952,1.3945,1.3943,1.3951,1.3941,1.3942,1.3944,1.3978,1.3983,1.3988,0,0,0,0,0,0,1.4039,1.4039,1.4048,1.4027,1.4024,1.4031,1.4002,1.3997,1.3993,1.3989,1.3968,1.3964,1.3944,1.3944,1.3943,1.3951,1.3926,1.3941,1.3943,1.3944,1.398,1.3984,1.3988,0,0,0,0,0,1.4039,1.4038,1.4025,1.4027,1.4024,1.4,1.4001,1.3997,1.3993,1.3968,1.3963,1.3978,1.3945,1.3942,1.3943,1.3952,1.3926,1.3926,1.3942,1.3944,1.3945,1.3982,0,0,0,0,0,0,1.4039,1.4033,1.4024,1.4022,1.4019,1.3999,1.3996,1.3997,1.3972,1.3967,1.3977,1.3974,1.3946,1.3944,1.3942,1.3954,1.3927,1.3927,1.3926,1.3943,1.3944,1.3945,0,0,0,0,0,0,1.4033,1.4032,1.4023,1.4015,1.4012,1.3999,1.3996,1.3994,1.3972,1.3981,1.3978,1.3976,1.3948,1.3945,1.3943,1.3942,1.3928,1.3927,1.3927,1.3927,1.3944,1.3945,0,0,0,0,0,0,1.4032,1.4031,1.4015,1.4013,1.401,1.3989,1.3997,1.3985,1.3967,1.3983,1.3964,1.3963,1.395,1.3948,1.3944,1.3944,1.3942,1.3928,1.3927,1.3927,1.3927,0,0,0,0,0,0,0,1.4031,1.4045,1.4035,1.4011,1.4009,1.4006,1.4006,1.4005,1.3967,1.3966,1.3965,1.3964,1.393,1.393,1.3929,1.3945,0,0,1.3928,1.3927,0,0,0,0,0,0,0,0,1.4045,1.4045,1.4035,1.4034,1.4034,1.4006,1.4006,1.4005,1.3967,1.3966,1.3965,1.3964,1.393,1.393,1.3929,0,0,0,0,0,0,0,0,0,0,0,0,0,0,0,1.4035,1.4034,0,1.4006,1.4006,1.4005,1.3966,1.3966,1.3965,1.3965,1.393,1.3929,1.3929,0,0,0,0,0,0,0,0,0,0,0,0,0,0,0,0,0,0,0,0,0,0,0,0,0,0,0,0,0,0,0,0,0,0,0,0,0,0,0,0,0,0,0,0,0,0,0,0,0,0,0,0,0,0,0,0,0,0,0,0,0,0,0,0,0,0,0,0,0]}]]]